Location: Altmatt
(47.1333°N, 8.7000°E)
Time: 18:13:49
(UTC+00:00)

Cosmos 2297 - Pass Details

Date: 13 July 2020
Orbit: 835 x 859 km, 71.0° (Epoch: 13 August)

Event Time Altitude Azimuth Distance (km) Brightness Sun altitude
Rises 20:59:33 0° 333° (NNW) 3,442 8.8 -13.2°
Reaches altitude 10° 21:02:02 10° 336° (NNW) 2,500 7.5 -13.5°
Maximum altitude 21:07:47 74° 61° (ENE) 890 3.8 -14.0°
Enters shadow 21:11:40 21° 144° (SE) 1,813 4.8 -14.4°
